C6033 TJBQ-TJBQ

Flight info

Callsign C6033
Flight time N/A
Altitude 2000
Route VFR
Aircraft H60/L-VGD/A

Departure

Time 2026-04-22 19:11
Airport Rafael Hernández International Airport (TJBQ)

Arrival

Time N/A
Airport Rafael Hernández International Airport (TJBQ)
Time Latitude Longitude Altitude Speed Heading
2026-04-22 18:57 18.49583 -67.13168 237 ft 0 kts 69°
2026-04-22 19:09 18.49583 -67.13167 236 ft 0 kts 69°
2026-04-22 19:09 18.49585 -67.13148 235 ft 4 kts 129°
2026-04-22 19:10 18.49561 -67.13138 235 ft 4 kts 165°
2026-04-22 19:10 18.49542 -67.13134 241 ft 1 kts 78°
2026-04-22 19:10 18.49543 -67.13131 243 ft 1 kts 73°
2026-04-22 19:10 18.49542 -67.13130 245 ft 1 kts 68°
2026-04-22 19:11 18.49546 -67.13116 399 ft 3 kts 70°
2026-04-22 19:11 18.49482 -67.13128 659 ft 36 kts 147°
2026-04-22 19:11 18.49027 -67.13419 855 ft 111 kts 216°
2026-04-22 19:11 18.48235 -67.13933 930 ft 153 kts 207°
2026-04-22 19:12 18.47187 -67.14358 788 ft 169 kts 193°
2026-04-22 19:12 18.46061 -67.14668 852 ft 166 kts 194°
2026-04-22 19:12 18.44950 -67.14991 860 ft 166 kts 193°
2026-04-22 19:12 18.43854 -67.15352 880 ft 168 kts 197°
2026-04-22 19:13 18.42760 -67.15758 914 ft 165 kts 198°
2026-04-22 19:13 18.41682 -67.16214 969 ft 168 kts 200°
2026-04-22 19:13 18.40587 -67.16662 1007 ft 170 kts 200°
2026-04-22 19:13 18.39499 -67.17144 1079 ft 169 kts 204°
2026-04-22 19:14 18.38441 -67.17725 1089 ft 175 kts 210°
2026-04-22 19:14 18.37454 -67.18460 1106 ft 173 kts 220°
2026-04-22 19:14 18.36531 -67.19266 1148 ft 173 kts 221°
2026-04-22 19:14 18.35573 -67.20047 1175 ft 171 kts 216°
2026-04-22 19:15 18.34902 -67.20447 1184 ft 165 kts 207°
2026-04-22 19:15 18.33451 -67.20778 1299 ft 159 kts 186°
2026-04-22 19:15 18.32351 -67.20641 1344 ft 161 kts 169°
2026-04-22 19:15 18.31315 -67.20133 1303 ft 167 kts 151°
2026-04-22 19:16 18.30316 -67.19514 1269 ft 167 kts 152°
2026-04-22 19:16 18.29277 -67.18922 1186 ft 169 kts 154°
2026-04-22 19:16 18.28234 -67.18362 1174 ft 166 kts 156°
2026-04-22 19:16 18.27224 -67.17887 1071 ft 150 kts 159°
2026-04-22 19:17 18.26328 -67.17481 1040 ft 132 kts 159°
2026-04-22 19:17 18.25548 -67.17081 908 ft 120 kts 142°
2026-04-22 19:17 18.25282 -67.16330 485 ft 108 kts 86°
2026-04-22 19:17 18.25344 -67.15697 389 ft 63 kts 82°
2026-04-22 19:18 18.25404 -67.15330 221 ft 40 kts 80°
2026-04-22 19:18 18.25435 -67.15099 86 ft 23 kts 82°
2026-04-22 19:18 18.25438 -67.14986 38 ft 9 kts 77°
2026-04-22 19:18 18.25441 -67.14940 23 ft 2 kts 77°
2026-04-22 19:19 18.25440 -67.14932 16 ft 0 kts 81°
2026-04-22 19:19 18.25440 -67.14930 13 ft 0 kts 82°
2026-04-22 19:26 18.25459 -67.14842 93 ft 27 kts 77°
2026-04-22 19:26 18.25482 -67.14487 293 ft 69 kts 122°
2026-04-22 19:27 18.25059 -67.14169 724 ft 95 kts 158°
2026-04-22 19:27 18.24346 -67.13828 954 ft 128 kts 157°
2026-04-22 19:27 18.23546 -67.13260 981 ft 146 kts 143°
2026-04-22 19:27 18.22782 -67.12558 1005 ft 148 kts 139°
2026-04-22 19:28 18.22064 -67.11777 1076 ft 147 kts 134°
2026-04-22 19:28 18.21365 -67.10992 1194 ft 147 kts 136°
2026-04-22 19:28 18.20649 -67.10215 1324 ft 148 kts 140°
2026-04-22 19:28 18.19863 -67.09533 1399 ft 145 kts 146°
2026-04-22 19:29 18.19043 -67.08909 1528 ft 147 kts 148°
2026-04-22 19:29 18.18171 -67.08342 1582 ft 147 kts 154°
2026-04-22 19:29 18.17238 -67.07826 1593 ft 156 kts 157°
2026-04-22 19:29 18.16233 -67.07347 1664 ft 159 kts 160°
2026-04-22 19:30 18.15539 -67.07084 1688 ft 161 kts 165°
2026-04-22 19:30 18.14179 -67.06349 1662 ft 170 kts 147°
2026-04-22 19:30 18.13369 -67.05459 1645 ft 166 kts 131°
2026-04-22 19:30 18.12664 -67.04534 1749 ft 162 kts 132°
2026-04-22 19:31 18.11917 -67.03653 1869 ft 161 kts 134°
2026-04-22 19:31 18.11222 -67.02726 1961 ft 164 kts 129°
2026-04-22 19:31 18.10537 -67.01757 1940 ft 163 kts 129°
2026-04-22 19:31 18.09847 -67.00813 2014 ft 160 kts 129°
2026-04-22 19:32 18.09167 -66.99849 2003 ft 165 kts 129°
2026-04-22 19:32 18.08485 -66.98884 1996 ft 165 kts 129°
2026-04-22 19:32 18.07803 -66.97924 1996 ft 167 kts 129°
2026-04-22 19:32 18.07118 -66.96958 1990 ft 162 kts 129°
2026-04-22 19:33 18.06435 -66.96013 1991 ft 162 kts 129°
2026-04-22 19:33 18.05753 -66.95047 1999 ft 164 kts 129°
2026-04-22 19:33 18.05070 -66.94100 1992 ft 166 kts 129°
2026-04-22 19:33 18.04376 -66.93150 1991 ft 164 kts 129°
2026-04-22 19:34 18.03675 -66.92204 1989 ft 163 kts 129°
2026-04-22 19:34 18.02974 -66.91248 1983 ft 169 kts 129°
2026-04-22 19:34 18.02284 -66.90294 1984 ft 164 kts 128°
2026-04-22 19:34 18.01731 -66.89284 2013 ft 153 kts 112°
2026-04-22 19:35 18.01434 -66.88245 1995 ft 144 kts 100°
2026-04-22 19:35 18.01364 -66.87192 1992 ft 150 kts 92°
2026-04-22 19:35 18.01388 -66.86069 1992 ft 155 kts 91°
2026-04-22 19:35 18.01411 -66.84942 1994 ft 152 kts 91°
2026-04-22 19:36 18.01439 -66.83810 1989 ft 152 kts 91°
2026-04-22 19:36 18.01468 -66.82673 1977 ft 153 kts 91°
2026-04-22 19:36 18.01496 -66.81558 1977 ft 154 kts 91°
2026-04-22 19:36 18.01511 -66.80427 1978 ft 151 kts 91°
2026-04-22 19:37 18.01518 -66.79287 1978 ft 156 kts 91°
2026-04-22 19:37 18.01534 -66.78154 1981 ft 149 kts 91°
2026-04-22 19:37 18.01554 -66.77045 1979 ft 152 kts 91°
2026-04-22 19:37 18.01581 -66.75933 1977 ft 150 kts 91°
2026-04-22 19:38 18.01615 -66.74822 1981 ft 150 kts 91°
2026-04-22 19:38 18.01641 -66.73714 1979 ft 155 kts 91°
2026-04-22 19:38 18.01665 -66.72590 1977 ft 152 kts 91°
2026-04-22 19:38 18.01693 -66.71462 1969 ft 153 kts 91°
2026-04-22 19:39 18.01722 -66.70370 1973 ft 150 kts 91°
2026-04-22 19:39 18.01733 -66.69261 1958 ft 148 kts 91°
2026-04-22 19:39 18.01758 -66.68158 1956 ft 150 kts 91°
2026-04-22 19:39 18.01783 -66.67052 1966 ft 150 kts 91°
2026-04-22 19:40 18.01809 -66.65949 1977 ft 150 kts 91°
2026-04-22 19:40 18.01841 -66.64841 1974 ft 153 kts 91°
2026-04-22 19:40 18.01873 -66.63732 1967 ft 158 kts 91°
2026-04-22 19:40 18.01911 -66.62625 1968 ft 153 kts 91°
2026-04-22 19:41 18.01929 -66.61511 1965 ft 151 kts 91°
2026-04-22 19:41 18.01870 -66.60442 1966 ft 144 kts 100°
2026-04-22 19:41 18.01709 -66.59410 1960 ft 149 kts 101°
2026-04-22 19:41 18.01540 -66.58326 1959 ft 147 kts 101°
2026-04-22 19:42 18.01359 -66.57241 1960 ft 147 kts 101°
2026-04-22 19:42 18.01205 -66.56156 1987 ft 154 kts 101°
2026-04-22 19:42 18.01046 -66.55043 1983 ft 154 kts 101°
2026-04-22 19:42 18.00899 -66.53934 1993 ft 154 kts 101°
2026-04-22 19:43 18.00611 -66.51715 1986 ft 155 kts 101°
2026-04-22 19:43 18.00463 -66.50595 1983 ft 153 kts 101°
2026-04-22 19:43 18.00310 -66.49472 1973 ft 157 kts 101°
2026-04-22 19:44 18.00146 -66.48349 1972 ft 156 kts 101°
2026-04-22 19:44 17.99991 -66.47241 1978 ft 154 kts 101°
2026-04-22 19:44 17.99835 -66.46125 1985 ft 153 kts 101°
2026-04-22 19:44 17.99687 -66.45011 1984 ft 156 kts 101°
2026-04-22 19:45 17.99532 -66.43910 1987 ft 155 kts 101°
2026-04-22 19:45 17.99372 -66.42794 1983 ft 154 kts 101°
2026-04-22 19:45 17.99208 -66.41682 1987 ft 155 kts 101°
2026-04-22 19:45 17.99055 -66.40562 1988 ft 155 kts 101°
2026-04-22 19:46 17.98911 -66.39445 1989 ft 154 kts 101°
2026-04-22 19:46 17.98767 -66.38328 1995 ft 156 kts 101°
2026-04-22 19:46 17.98614 -66.37216 1990 ft 155 kts 101°
2026-04-22 19:46 17.98459 -66.36096 1983 ft 156 kts 101°
2026-04-22 19:47 17.98306 -66.34971 1981 ft 154 kts 101°
2026-04-22 19:47 17.98151 -66.33867 1992 ft 152 kts 101°
2026-04-22 19:47 17.97996 -66.32767 1988 ft 154 kts 101°
2026-04-22 19:47 17.97842 -66.31655 1986 ft 154 kts 101°
2026-04-22 19:48 17.97689 -66.30544 1989 ft 154 kts 101°
2026-04-22 19:48 17.97533 -66.29432 1977 ft 157 kts 101°
2026-04-22 19:48 17.97378 -66.28332 1980 ft 154 kts 101°
2026-04-22 19:48 17.97227 -66.27228 1981 ft 150 kts 101°
2026-04-22 19:49 17.97091 -66.26126 1979 ft 153 kts 101°
2026-04-22 19:49 17.96943 -66.25007 1987 ft 153 kts 101°
2026-04-22 19:49 17.96758 -66.23950 1977 ft 147 kts 101°
2026-04-22 19:49 17.96573 -66.22880 1986 ft 149 kts 101°
2026-04-22 19:50 17.96379 -66.21819 1984 ft 144 kts 101°
2026-04-22 19:50 17.96197 -66.20779 1983 ft 145 kts 101°
2026-04-22 19:50 17.95990 -66.19733 1987 ft 148 kts 101°
2026-04-22 19:50 17.95811 -66.18683 1978 ft 147 kts 101°
2026-04-22 19:51 17.95628 -66.17639 1963 ft 143 kts 101°
2026-04-22 19:51 17.95457 -66.16570 1985 ft 148 kts 101°
2026-04-22 19:51 17.95281 -66.15505 1980 ft 145 kts 101°
2026-04-22 19:51 17.95111 -66.14447 1986 ft 150 kts 101°
2026-04-22 19:52 17.94933 -66.13404 1986 ft 143 kts 101°
2026-04-22 19:52 17.94762 -66.12370 1988 ft 141 kts 101°
2026-04-22 19:52 17.94592 -66.11326 1985 ft 143 kts 101°
2026-04-22 19:52 17.94402 -66.10280 1983 ft 145 kts 101°
2026-04-22 19:53 17.94234 -66.09218 1982 ft 148 kts 101°
2026-04-22 19:53 17.94069 -66.08194 1977 ft 144 kts 101°
2026-04-22 19:53 17.93892 -66.07143 1978 ft 144 kts 101°
2026-04-22 19:53 17.93729 -66.06128 1982 ft 139 kts 101°
2026-04-22 19:54 17.93548 -66.05099 1985 ft 142 kts 101°
2026-04-22 19:54 17.93381 -66.04054 1989 ft 148 kts 101°
2026-04-22 19:54 17.93222 -66.03007 1991 ft 141 kts 101°
2026-04-22 19:54 17.93040 -66.01986 1995 ft 140 kts 101°
2026-04-22 19:55 17.92863 -66.00949 1993 ft 140 kts 101°
2026-04-22 19:55 17.92690 -65.99941 1991 ft 138 kts 101°
2026-04-22 19:55 17.92509 -65.98907 1989 ft 150 kts 101°
2026-04-22 19:55 17.92321 -65.97876 1982 ft 143 kts 101°
2026-04-22 19:56 17.92140 -65.96827 1980 ft 150 kts 101°
2026-04-22 19:56 17.91945 -65.95767 1979 ft 147 kts 101°
2026-04-22 19:56 17.91759 -65.94732 1982 ft 147 kts 101°
2026-04-22 19:56 17.91580 -65.93700 1976 ft 143 kts 101°
2026-04-22 19:57 17.91380 -65.92641 1979 ft 149 kts 101°
2026-04-22 19:57 17.91172 -65.91565 1977 ft 149 kts 101°
2026-04-22 19:57 17.90969 -65.90496 1976 ft 151 kts 101°
2026-04-22 19:57 17.90757 -65.89421 1973 ft 150 kts 101°
2026-04-22 19:58 17.90561 -65.88347 1976 ft 149 kts 101°
2026-04-22 19:58 17.90364 -65.87294 1973 ft 148 kts 101°
2026-04-22 19:58 17.90154 -65.86239 1975 ft 148 kts 101°
2026-04-22 19:58 17.89956 -65.85166 1981 ft 148 kts 101°
2026-04-22 19:59 17.89759 -65.84102 1975 ft 148 kts 101°
2026-04-22 20:00 17.88606 -65.77701 1980 ft 147 kts 101°
2026-04-22 20:00 17.88407 -65.76647 1980 ft 147 kts 101°
2026-04-22 20:01 17.88212 -65.75580 1977 ft 146 kts 101°
2026-04-22 20:01 17.88015 -65.74530 1969 ft 148 kts 101°
2026-04-22 20:01 17.87827 -65.73467 1969 ft 149 kts 101°
2026-04-22 20:01 17.87632 -65.72406 1972 ft 149 kts 101°
2026-04-22 20:02 17.87436 -65.71344 1977 ft 149 kts 101°
2026-04-22 20:02 17.87236 -65.70277 1979 ft 150 kts 101°
2026-04-22 20:02 17.87034 -65.69211 1980 ft 149 kts 101°
2026-04-22 20:02 17.86839 -65.68151 1975 ft 151 kts 101°
2026-04-22 20:03 17.86633 -65.67082 1979 ft 148 kts 101°
2026-04-22 20:03 17.86429 -65.66012 1981 ft 151 kts 101°
2026-04-22 20:03 17.86223 -65.64936 1972 ft 148 kts 101°
2026-04-22 20:03 17.86016 -65.63875 1972 ft 150 kts 101°
2026-04-22 20:04 17.85822 -65.62793 1972 ft 151 kts 101°
2026-04-22 20:04 17.85626 -65.61725 1972 ft 150 kts 101°
2026-04-22 20:04 17.85423 -65.60645 1978 ft 151 kts 101°
2026-04-22 20:04 17.85215 -65.59589 1973 ft 148 kts 101°
2026-04-22 20:05 17.85010 -65.58507 1975 ft 150 kts 101°
2026-04-22 20:05 17.84803 -65.57430 1977 ft 150 kts 101°
2026-04-22 20:05 17.84606 -65.56350 1974 ft 151 kts 101°
2026-04-22 20:05 17.84395 -65.55284 1974 ft 147 kts 101°
2026-04-22 20:06 17.84193 -65.54213 1972 ft 151 kts 101°
2026-04-22 20:06 17.83994 -65.53153 1976 ft 150 kts 101°
2026-04-22 20:06 17.83788 -65.52087 1973 ft 150 kts 101°
2026-04-22 20:06 17.83584 -65.51015 1973 ft 152 kts 101°
2026-04-22 20:07 17.83377 -65.49945 1977 ft 149 kts 101°
2026-04-22 20:07 17.83172 -65.48880 1972 ft 148 kts 101°
2026-04-22 20:07 17.82963 -65.47799 1971 ft 151 kts 101°
2026-04-22 20:07 17.82755 -65.46728 1968 ft 147 kts 101°
2026-04-22 20:08 17.82545 -65.45665 1979 ft 148 kts 101°
2026-04-22 20:08 17.82326 -65.44600 1976 ft 150 kts 101°
2026-04-22 20:08 17.82113 -65.43523 1977 ft 149 kts 101°
2026-04-22 20:08 17.81894 -65.42441 1980 ft 152 kts 101°
2026-04-22 20:09 17.81686 -65.41373 1979 ft 150 kts 101°
2026-04-22 20:09 17.81467 -65.40299 1980 ft 151 kts 101°
2026-04-22 20:09 17.81254 -65.39244 1976 ft 151 kts 101°
2026-04-22 20:09 17.81048 -65.38155 1974 ft 153 kts 101°
2026-04-22 20:10 17.80830 -65.37067 1981 ft 153 kts 101°
2026-04-22 20:10 17.80623 -65.35978 1974 ft 154 kts 101°
2026-04-22 20:10 17.80410 -65.34898 1978 ft 151 kts 101°
2026-04-22 20:10 17.80203 -65.33823 1977 ft 150 kts 101°
2026-04-22 20:11 17.79996 -65.32739 1982 ft 152 kts 101°
2026-04-22 20:11 17.79783 -65.31659 1977 ft 151 kts 101°
2026-04-22 20:11 17.79579 -65.30600 1983 ft 150 kts 101°
2026-04-22 20:11 17.79374 -65.29518 1978 ft 153 kts 101°
2026-04-22 20:12 17.79164 -65.28432 1972 ft 151 kts 101°
2026-04-22 20:12 17.78953 -65.27341 1974 ft 151 kts 101°
2026-04-22 20:12 17.78812 -65.26621 1978 ft 153 kts 101°
2026-04-22 20:12 17.78524 -65.25182 1982 ft 150 kts 101°
2026-04-22 20:13 17.78305 -65.24103 1973 ft 150 kts 101°
2026-04-22 20:13 17.78100 -65.23030 1975 ft 152 kts 101°
2026-04-22 20:13 17.77958 -65.22311 1978 ft 153 kts 101°
2026-04-22 20:13 17.77672 -65.20877 1979 ft 149 kts 101°
2026-04-22 20:14 17.77531 -65.20165 1979 ft 152 kts 101°
2026-04-22 20:14 17.77316 -65.19097 1983 ft 148 kts 101°
2026-04-22 20:14 17.77039 -65.17672 1976 ft 151 kts 101°
2026-04-22 20:14 17.76892 -65.16943 1971 ft 151 kts 101°
2026-04-22 20:15 17.76678 -65.15856 1971 ft 152 kts 101°
2026-04-22 20:15 17.76469 -65.14772 1978 ft 151 kts 101°
2026-04-22 20:15 17.76256 -65.13702 1973 ft 150 kts 101°
2026-04-22 20:15 17.76040 -65.12626 1975 ft 150 kts 101°
2026-04-22 20:16 17.75816 -65.11559 1974 ft 150 kts 101°
2026-04-22 20:16 17.75600 -65.10482 1976 ft 151 kts 101°
2026-04-22 20:16 17.75383 -65.09410 1976 ft 152 kts 101°
2026-04-22 20:16 17.75158 -65.08335 1984 ft 152 kts 101°
2026-04-22 20:17 17.74942 -65.07255 1984 ft 152 kts 101°
2026-04-22 20:17 17.74722 -65.06180 1983 ft 150 kts 101°
2026-04-22 20:17 17.74493 -65.05105 1981 ft 151 kts 101°
2026-04-22 20:17 17.74270 -65.04025 1979 ft 151 kts 101°
2026-04-22 20:18 17.74049 -65.02943 1982 ft 151 kts 101°
2026-04-22 20:18 17.73829 -65.01864 1981 ft 152 kts 101°
2026-04-22 20:18 17.73607 -65.00791 1974 ft 150 kts 101°
2026-04-22 20:18 17.73381 -64.99717 1972 ft 152 kts 101°
2026-04-22 20:19 17.73169 -64.98655 1970 ft 150 kts 101°
2026-04-22 20:19 17.72948 -64.97580 1976 ft 149 kts 101°
2026-04-22 20:19 17.72719 -64.96503 1983 ft 152 kts 101°
2026-04-22 20:19 17.72501 -64.95419 1979 ft 151 kts 101°
2026-04-22 20:20 17.72284 -64.94341 1978 ft 151 kts 101°
2026-04-22 20:20 17.72060 -64.93262 1980 ft 151 kts 101°
2026-04-22 20:20 17.71834 -64.92181 1974 ft 154 kts 101°
2026-04-22 20:20 17.71617 -64.91106 1978 ft 153 kts 101°
2026-04-22 20:21 17.71394 -64.90030 1976 ft 151 kts 101°
2026-04-22 20:21 17.71165 -64.88949 1978 ft 150 kts 101°
2026-04-22 20:21 17.70945 -64.87881 1984 ft 148 kts 101°
2026-04-22 20:21 17.70727 -64.86837 1936 ft 144 kts 101°
2026-04-22 20:22 17.70475 -64.85817 1666 ft 143 kts 102°
2026-04-22 20:22 17.70237 -64.84829 1387 ft 141 kts 101°
2026-04-22 20:22 17.70125 -64.83849 1169 ft 129 kts 91°
2026-04-22 20:22 17.70087 -64.82925 870 ft 124 kts 92°
2026-04-22 20:23 17.70028 -64.82058 568 ft 111 kts 90°
2026-04-22 20:23 17.70042 -64.81315 237 ft 89 kts 82°
2026-04-22 20:23 17.69954 -64.80987 110 ft 23 kts 166°
2026-04-22 20:23 17.69877 -64.80991 88 ft 2 kts 175°
2026-04-22 20:24 17.69870 -64.80990 80 ft 0 kts 176°